Weather History for Beaumont / Port Arthur, TX

Change the Weather History Date:

Sunday, September 15, 2013

  Actual Average (KBPT) Record (KBPT)
Temperature  
Mean Temperature 76 °F 79 °F  
Max Temperature 76 °F 89 °F 96 °F (1980)
Min Temperature 75 °F 70 °F 51 °F (1902)
Degree Days  
Heating Degree Days 0 0  
Month to date heating degree days 0  
Since 1 July heating degree days 0  
Cooling Degree Days 10 14  
Month to date cooling degree days 237  
Year to date cooling degree days 2404  
Growing Degree Days 26 (Base 50)    
Moisture  
Dew Point -23 °F    
Average Humidity 4    
Maximum Humidity 4    
Minimum Humidity 4    
Precipitation  
Precipitation 0.00 in 0.20 in 2.35 in (1971)
Month to date precipitation 3.19  
Year to date precipitation 42.42  
Snow  
Snow 0.00 in 0.00 in 0.00 in ()
Month to date snowfall 0.0  
Since 1 July snowfall 0.0  
Since 1 September snowfall 0.0  
Snow Depth -    
Sea Level Pressure  
Sea Level Pressure 29.97 in    
Wind  
Wind Speed 5 mph (East)    
Max Wind Speed 22 mph    
Max Gust Speed 28 mph    
Visibility 10 miles    
Events Rain    
T = Trace of Precipitation, MM = Missing Value Source: NWS Daily Summary

Daily Weather History Graph

Daily Weather History Graph

Search for Another Location

Airport:

Trip Planner

Search our weather history database for the weather conditions in past years. The results will help you decide how hot, cold, wet, or windy it might be!

Date:

Astronomy

Sep. 15, 2013 Rise Set
Actual Time 7:01 AM CDT 7:21 PM CDT
Civil Twilight 6:37 AM CDT 7:45 PM CDT
Nautical Twilight 6:09 AM CDT 8:13 PM CDT
Astronomical Twilight 5:41 AM CDT 8:42 PM CDT
Moon 4:37 PM CDT (9/15) 2:55 AM CDT (9/15)
Length of Visible Light 13h 08m
Length of Day
12h 20m
Waxing Gibbous, 82% of the Moon is Illuminated
Sep 15
Waxing Gibbous
Sep 19
Full
Sep 26
Last Quarter
Oct 4
New
Oct 11
First Quarter

Hourly Weather History & Observations

Time (CDT) Temp. Dew Point Humidity Pressure Visibility Wind Dir Wind Speed Gust Speed Precip Events Conditions
12:15 AM - - N/A% 29.94 in 7.0 mi NE 4.6 mph - N/A   Clear
12:35 AM - - N/A% 29.94 in 10.0 mi NE 5.8 mph - N/A   Clear
12:55 AM 76.1 °F -22.4 °F 4% 29.94 in 7.0 mi NE 4.6 mph - N/A   Clear
1:15 AM - - N/A% 29.94 in 7.0 mi NE 3.5 mph - N/A   Clear
1:35 AM - - N/A% 29.94 in 7.0 mi NE 4.6 mph - N/A   Clear
1:55 AM 75.4 °F -23.6 °F 4% 29.94 in 7.0 mi NE 4.6 mph - N/A   Clear
2:15 AM 75.6 °F -22.7 °F 4% 29.94 in 7.0 mi ENE 4.6 mph - N/A   Clear
2:35 AM - - N/A% 29.94 in 10.0 mi ENE 5.8 mph - N/A   Clear
2:55 AM - - N/A% 29.93 in 10.0 mi NE 4.6 mph - N/A   Clear
3:15 AM - - N/A% 29.93 in 10.0 mi NE 4.6 mph - N/A   Clear
3:35 AM - - N/A% 29.93 in 10.0 mi ENE 3.5 mph - N/A   Clear
3:55 AM - - N/A% 29.94 in 10.0 mi ENE 3.5 mph - N/A   Clear
4:15 AM - - N/A% 29.94 in 10.0 mi NE 3.5 mph - N/A   Clear
4:35 AM - - N/A% 29.94 in 10.0 mi NE 4.6 mph - N/A   Clear
4:55 AM - - N/A% 29.94 in 7.0 mi ENE 3.5 mph - N/A   Clear
5:15 AM - - N/A% 29.94 in 10.0 mi NE 4.6 mph - N/A   Clear
5:35 AM - - N/A% 29.95 in 10.0 mi ENE 4.6 mph - N/A   Clear
5:55 AM - - N/A% 29.95 in 10.0 mi ENE 4.6 mph - N/A   Clear
6:15 AM - - N/A% 29.96 in 10.0 mi ENE 3.5 mph - N/A   Clear
6:35 AM - - N/A% 29.96 in 10.0 mi ENE 4.6 mph - N/A   Clear
6:55 AM - - N/A% 29.96 in 10.0 mi NE 4.6 mph - N/A   Clear
7:15 AM - - N/A% 29.96 in 7.0 mi NE 4.6 mph - N/A   Clear
7:35 AM - - N/A% 29.97 in 7.0 mi ENE 3.5 mph - N/A   Clear
7:55 AM - - N/A% 29.97 in 10.0 mi ENE 4.6 mph - N/A   Clear
8:15 AM - - N/A% 29.98 in 10.0 mi ENE 3.5 mph - N/A   Clear
8:35 AM - - N/A% 29.98 in 10.0 mi East 5.8 mph - N/A   Clear
8:55 AM - - N/A% 29.98 in 10.0 mi ENE 8.1 mph - N/A   Clear
9:15 AM - - N/A% 29.99 in 10.0 mi East 6.9 mph - N/A   Clear
9:35 AM - - N/A% 30.00 in 10.0 mi East 8.1 mph - N/A   Clear
9:55 AM - - N/A% 30.00 in 10.0 mi East 9.2 mph - N/A   Clear
10:15 AM - - N/A% 30.00 in 10.0 mi ENE 8.1 mph - N/A   Clear
10:35 AM - - N/A% 30.01 in 10.0 mi East 6.9 mph - N/A   Clear
10:55 AM - - N/A% 30.01 in 10.0 mi ESE 6.9 mph 16.1 mph N/A   Scattered Clouds
11:15 AM - - N/A% 30.02 in 10.0 mi East 8.1 mph 19.6 mph N/A   Scattered Clouds
11:35 AM - - N/A% 30.02 in 10.0 mi SE 6.9 mph - N/A   Mostly Cloudy
11:55 AM - - N/A% 30.02 in 10.0 mi East 8.1 mph 16.1 mph N/A   Mostly Cloudy
12:15 PM - - N/A% 30.02 in 10.0 mi SSE 9.2 mph - N/A   Scattered Clouds
12:35 PM - - N/A% 30.02 in 10.0 mi East 6.9 mph - N/A   Scattered Clouds
12:55 PM - - N/A% 30.01 in 10.0 mi SE 5.8 mph - N/A   Mostly Cloudy
1:15 PM - - N/A% 30.00 in 10.0 mi East 8.1 mph - N/A   Mostly Cloudy
1:35 PM - - N/A% 29.99 in 10.0 mi ESE 5.8 mph - N/A   Mostly Cloudy
1:55 PM - - N/A% 29.98 in 10.0 mi ESE 6.9 mph 16.1 mph N/A   Scattered Clouds
2:15 PM - - N/A% 29.97 in 10.0 mi SE 4.6 mph - N/A   Scattered Clouds
2:35 PM - - N/A% 29.97 in 10.0 mi East 9.2 mph - N/A   Scattered Clouds
2:55 PM - - N/A% 29.97 in 10.0 mi East 5.8 mph - N/A   Scattered Clouds
3:15 PM - - N/A% 29.96 in 10.0 mi East 8.1 mph 16.1 mph N/A   Scattered Clouds
3:35 PM - - N/A% 29.96 in 10.0 mi East 4.6 mph - N/A Rain Light Rain
3:55 PM - - N/A% 29.95 in 10.0 mi ENE 9.2 mph - N/A   Mostly Cloudy
4:15 PM - - N/A% 29.95 in 10.0 mi SE 6.9 mph - N/A   Scattered Clouds
4:35 PM - - N/A% 29.96 in 10.0 mi East 21.9 mph 27.6 mph N/A   Scattered Clouds
4:55 PM - - N/A% 29.96 in 10.0 mi East 5.8 mph - N/A   Mostly Cloudy
5:15 PM - - N/A% 29.96 in 10.0 mi SE 4.6 mph - N/A   Scattered Clouds
5:35 PM - - N/A% 29.96 in 10.0 mi SE 9.2 mph - N/A   Clear
5:55 PM - - N/A% 29.96 in 10.0 mi SE 6.9 mph - N/A   Clear
6:15 PM - - N/A% 29.97 in 10.0 mi SE 4.6 mph - N/A   Clear
6:35 PM - - N/A% 29.97 in 10.0 mi SE 5.8 mph - N/A   Clear
6:55 PM - - N/A% 29.97 in 10.0 mi SE 6.9 mph - N/A   Clear
7:15 PM - - N/A% 29.97 in 10.0 mi SE 4.6 mph - N/A   Clear
7:35 PM - - N/A% 29.98 in 10.0 mi SE 6.9 mph - N/A   Clear
7:55 PM - - N/A% 29.98 in 10.0 mi Calm Calm - N/A   Clear
8:15 PM - - N/A% 29.99 in 10.0 mi SE 4.6 mph - N/A   Clear
8:35 PM - - N/A% 29.99 in 10.0 mi ESE 3.5 mph - N/A   Clear
8:55 PM - - N/A% 30.00 in 10.0 mi SE 3.5 mph - N/A   Clear
9:15 PM - - N/A% 30.00 in 10.0 mi ESE 3.5 mph - N/A   Clear
9:35 PM - - N/A% 30.00 in 10.0 mi East 3.5 mph - N/A   Clear
9:55 PM - - N/A% 30.00 in 10.0 mi Calm Calm - N/A   Clear
10:15 PM - - N/A% 30.01 in 10.0 mi ESE 3.5 mph - N/A   Clear
10:35 PM - - N/A% 30.02 in 10.0 mi SE 3.5 mph - N/A   Clear
10:55 PM - - N/A% 30.01 in 10.0 mi ESE 4.6 mph - N/A   Clear
11:15 PM - - N/A% 30.02 in 10.0 mi Calm Calm - N/A   Clear
11:35 PM - - N/A% 30.02 in 10.0 mi East 3.5 mph - N/A   Clear
11:55 PM - - N/A% 30.02 in 10.0 mi Calm Calm - N/A   Clear